Location: Unspecified
(0.0000°N, 0.0000°E)
Time: 22:48:11
(UTC+00:00)

Hubble Space Telescope - Pass Details

Date: 14 April 2026
Orbit: 474 x 477 km, 28.5° (Epoch: 18 April)

Event Time Altitude Azimuth Distance (km) Brightness Sun altitude
Rises 19:36:33 0° 222° (SW) 2,513 4.6 -23.7°
Reaches altitude 10° 19:38:59 10° 210° (SSW) 1,634 3.4 -24.3°
Enters shadow 19:39:41 14° 203° (SSW) 1,408 3.0 -24.5°
